Leadville, CO

1:13 PM MST on November 22, 2019 (GMT -0700)
Lake County

Weather History for KLXV - September, 2019

Change the Weather History Date:

Friday, September 20, 2019

  Actual Average Record
Temperature  
Mean Temperature 49 °F -  
Max Temperature 64 °F 59 °F 72 °F (2014)
Min Temperature 34 °F 30 °F 20 °F (1978)
Degree Days  
Heating Degree Days 16 20  
Month to date heating degree days 272 354  
Since 1 July heating degree days 865 1076  
Cooling Degree Days 0 0  
Month to date cooling degree days 0 0  
Year to date cooling degree days 0 0  
Growing Degree Days 1 (Base 50)    
Moisture  
Dew Point 24 °F    
Average Humidity 43    
Maximum Humidity 70    
Minimum Humidity 16    
Precipitation  
Precipitation 0.00 in 0.03 in 0.38 in (1992)
Month to date precipitation 0.31 0.78  
Year to date precipitation 12.85 9.73  
Sea Level Pressure  
Sea Level Pressure 29.70 in    
Wind  
Wind Speed 10 mph (SSE)    
Max Wind Speed 30 mph    
Max Gust Speed 47 mph    
Visibility 10 miles    
Events      
T = Trace of Precipitation, MM = Missing Value Source: NWS Daily Summary

Daily Weather History Graph

Daily Weather History Graph

Search for Another Location

Airport or City:

Astronomy

Sep. 20, 2019 Rise Set
Actual Time 6:50 AM MDT 7:05 PM MDT
Civil Twilight 6:24 AM MDT 7:32 PM MDT
Nautical Twilight 5:52 AM MDT 8:03 PM MDT
Astronomical Twilight 5:20 AM MDT 8:35 PM MDT
Moon 11:00 PM MDT (9/20) 12:56 PM MDT (9/20)
Length of Visible Light 13h 08m
Length of Day
12h 14m
Waning Gibbous, 64% of the Moon is Illuminated
Sep 20
Waning Gibbous
Sep 21
Last Quarter
Sep 28
New
Oct 5
First Quarter
Oct 13
Full

Hourly Weather History & Observations

Time (MDT) Temp. Windchill Dew Point Humidity Pressure Visibility Wind Dir Wind Speed Gust Speed Precip Events Conditions
12:53 AM 46.9 °F - 28.0 °F 48% 29.68 in - East 4.6 mph - N/A   Partly Cloudy
1:53 AM 46.9 °F - 28.0 °F 48% 29.68 in - Calm Calm - N/A   Clear
2:53 AM 45.0 °F 43.5 °F 28.9 °F 53% 29.68 in - East 3.5 mph - N/A   Partly Cloudy
3:53 AM 46.9 °F - 30.0 °F 52% 29.67 in - SE 6.9 mph - N/A   Clear
4:53 AM 45.0 °F 41.8 °F 30.9 °F 58% 29.67 in - ESE 5.8 mph - N/A   Mostly Cloudy
5:53 AM 43.0 °F - 30.9 °F 62% 29.69 in - Calm Calm - N/A   Mostly Cloudy
6:53 AM 39.0 °F - 30.0 °F 70% 29.74 in - Calm Calm - N/A   Partly Cloudy
7:53 AM 43.0 °F - 30.9 °F 62% 29.74 in - Calm Calm - N/A   Clear
8:53 AM 48.9 °F - 32.0 °F 52% 29.70 in - Variable 4.6 mph - N/A   Partly Cloudy
9:53 AM 54.0 °F - 27.0 °F 35% 29.68 in - South 12.7 mph 20.7 mph N/A   Partly Cloudy
10:24 AM 55.0 °F - 23.0 °F 29% 30.15 in - SSE 16.1 mph 24.2 mph N/A   Partly Cloudy
10:53 AM 57.0 °F - 19.9 °F 24% 29.64 in - SSW 12.7 mph 27.6 mph N/A   Partly Cloudy
11:53 AM 60.1 °F - 19.0 °F 20% 29.62 in - South 23.0 mph 33.4 mph N/A   Scattered Clouds
12:53 PM 61.0 °F - 19.0 °F 20% 29.62 in - South 21.9 mph 36.8 mph N/A   Mostly Cloudy
1:53 PM 63.0 °F - 19.9 °F 19% 29.59 in 10.0 mi South 18.4 mph 28.8 mph N/A   Partly Cloudy
2:53 PM 62.1 °F - 16.0 °F 17% 29.59 in 10.0 mi SSW 24.2 mph 47.2 mph N/A   Scattered Clouds
3:53 PM 62.1 °F - 16.0 °F 17% 29.57 in 10.0 mi South 18.4 mph 34.5 mph N/A   Scattered Clouds
4:53 PM 61.0 °F - 18.0 °F 19% 29.60 in 10.0 mi South 27.6 mph 42.6 mph N/A   Partly Cloudy
5:53 PM 55.9 °F - 21.9 °F 27% 29.66 in 10.0 mi South 17.3 mph 25.3 mph N/A   Partly Cloudy
6:53 PM 54.0 °F - 19.9 °F 26% 29.71 in 10.0 mi SSW 13.8 mph 20.7 mph N/A   Partly Cloudy
7:53 PM 51.1 °F - 23.0 °F 33% 29.74 in 10.0 mi SSW 8.1 mph - N/A   Partly Cloudy
8:53 PM 46.9 °F - 25.0 °F 42% 29.76 in 10.0 mi Variable 4.6 mph - N/A   Partly Cloudy
9:53 PM 46.0 °F - 23.0 °F 40% 29.74 in 10.0 mi Calm Calm - N/A   Mostly Cloudy
10:53 PM 39.9 °F 37.8 °F 21.0 °F 47% 29.75 in 10.0 mi NE 3.5 mph - N/A   Scattered Clouds
11:53 PM 36.0 °F 30.3 °F 18.0 °F 48% 29.78 in 10.0 mi ENE 6.9 mph - N/A   Clear